カタログに戻る

STARLINK-5986

運用中通信VLEO
NORAD 56452·PAYLOAD·🇺🇸 United States

打ち上げ May 10, 2023 から Vandenberg Space Force Base

Loading…

次のパス (今後24時間)

TLE

最新Source: CelesTrak SupGP

元期: Sep 15, 2026, 02:09 UTC

1 56452C 23064E   26258.09006944 -.00010270  00000+0 -86050-3 0  2583
2 56452  70.0025  27.0569 0003060 274.1105  55.7555 14.98343139    14

AllMySatでSTARLINK-5986をリアルタイム追跡

Download on the App Store